Flag for U.S.A. Weather past 2 weeks in Hayward, California, U.S.A.

Now
60 °F

Sunny.


Feels Like: 60 °F
Forecast: 50 / 74 °F
Wind: 7 mph from West

Location: Hayward Air Terminal


UV Index: 5 (Moderate)

Visibility: 10 mi


Pressure: 30.17 "Hg

Humidity: 78%

Dew point: 53 °F

Location of HaywardLocation

Historic Weather in Hayward

°F

Hayward temperature yesterday

Maximum temperature yesterday: 62 °F (at 12:54 PM)
Minimum temperature yesterday: 50 °F (at 2:54 AM)
Average temperature yesterday: 55 °F

Past Weeks' High & Low Weather Summary

 TemperatureHumidityPressure
High78 °F (Apr 7, 3:54 PM)100% (Apr 9, 11:54 PM)30.26 "Hg (Apr 9, 11:54 PM)
Low47 °F (Apr 6, 6:54 AM)40% (Apr 7, 3:54 PM)29.83 "Hg (Apr 17, 4:54 AM)
Average57 °F80%30.03 "Hg
* Reported Apr 5 8:54 AM — Apr 20 8:54 AM, Hayward, Weather by CustomWeather, © 2014

Note: Actual official high and low records may vary slightly from our data, if they occured in-between our weather recording intervals... More about our weather records

Advertising

Historic Weather Conditions — Data for Previous 24 hours

 ConditionsComfort  
Time TempWeatherWind HumidityBarometerVisibility
8:54 AM
Apr 20
57 °FSunny.No wind83%30.17 "Hg10 mi
7:54 AM53 °FSunny.5 mph89%30.16 "Hg10 mi
6:54 AM50 °FClear.7 mph93%30.15 "Hg10 mi
5:54 AM50 °FClear.7 mph93%30.15 "Hg10 mi
4:54 AM51 °FPassing clouds.5 mph92%30.14 "Hg10 mi
3:54 AM52 °FOvercast.3 mph93%30.15 "Hg10 mi
2:54 AM52 °FPassing clouds.3 mph93%30.14 "Hg10 mi
1:54 AM53 °FClear.No wind89%30.16 "Hg10 mi
12:54 AM53 °FPassing clouds.No wind93%30.15 "Hg10 mi
11:54 PM
Apr 19
54 °FOvercast.No wind90%30.15 "Hg10 mi
10:54 PM54 °FOvercast.No wind93%30.16 "Hg10 mi
9:54 PM54 °FLow clouds.5 mph97%30.16 "Hg10 mi
8:54 PM55 °FLow clouds.9 mph90%30.15 "Hg10 mi
7:54 PM55 °FLow clouds.N/A93%30.14 "Hg10 mi
6:54 PM56 °FLow clouds.10 mph87%30.14 "Hg10 mi
5:54 PM58 °FPartly sunny.14 mph81%30.14 "Hg10 mi
4:54 PM60 °FPartly sunny.14 mph75%30.14 "Hg10 mi
3:54 PM61 °FScattered clouds.15 mph72%30.14 "Hg10 mi
2:54 PM61 °FSunny.20 mph70%30.14 "Hg10 mi
1:54 PM61 °FSunny.15 mph62%30.14 "Hg10 mi
12:54 PM62 °FSunny.13 mph56%30.13 "Hg10 mi
11:54 AM59 °FSunny.7 mph60%30.13 "Hg10 mi
10:54 AM57 °FPassing clouds.7 mph69%30.12 "Hg10 mi
Weather by CustomWeather, © 2014

See weather overview